Change the Weather History Date:

Monday, December 30, 2013

  Actual Average Record
Temperature  
Mean Temperature 55 °F 52 °F  
Max Temperature 68 °F 65 °F 81 °F (2006)
Min Temperature 42 °F 40 °F 27 °F (2000)
Degree Days  
Heating Degree Days 10 13  
Month to date heating degree days 178 325  
Since 1 July heating degree days 307 493  
Cooling Degree Days 0 0  
Month to date cooling degree days 52 14  
Year to date cooling degree days 2874 2616  
Growing Degree Days 6 (Base 50)    
Moisture  
Dew Point 47 °F    
Average Humidity 77    
Maximum Humidity 100    
Minimum Humidity 42    
Precipitation  
Precipitation 0.00 in 0.07 in 0.38 in (2007)
Month to date precipitation 1.82 2.44  
Year to date precipitation 63.29 48.28  
Sea Level Pressure  
Sea Level Pressure 30.14 in    
Wind  
Wind Speed 4 mph (NNE)    
Max Wind Speed 14 mph    
Max Gust Speed 22 mph    
T = Trace of Precipitation, MM = Missing Value Source: NWS Daily Summary

Daily Weather History Graph

Daily Weather History Graph

Search for Another Location

Airport or City:

Trip Planner

Search our weather history database for the weather conditions in past years. The results will help you decide how hot, cold, wet, or windy it might be!

Date:

Astronomy

Dec. 30, 2013 Rise Set
Actual Time 7:27 AM EST 5:43 PM EST
Civil Twilight 7:00 AM EST 6:09 PM EST
Nautical Twilight 6:31 AM EST 6:39 PM EST
Astronomical Twilight 6:01 AM EST 7:08 PM EST
Moon 5:19 AM EST (12/30) 4:12 PM EST (12/30)
Length of Visible Light 11h 08m
Length of Day
10h 16m
Waning Crescent, 5% of the Moon is Illuminated
Dec 30
Waning Crescent
Jan 1
New
Jan 7
First Quarter
Jan 15
Full
Jan 24
Last Quarter

Hourly Weather History & Observations

Time (EST) Temp. Dew Point Humidity Pressure Visibility Wind Dir Wind Speed Gust Speed Precip Events Conditions
12:53 AM 54.0 °F 52.0 °F 93% 30.05 in - North 5.8 mph - N/A   Unknown
1:53 AM 53.1 °F 53.1 °F 100% 30.05 in - North 5.8 mph - N/A   Unknown
2:53 AM 52.0 °F 51.1 °F 97% 30.06 in - NNW 8.1 mph - N/A   Unknown
3:53 AM 51.1 °F 48.9 °F 92% 30.07 in - North 8.1 mph - N/A   Unknown
4:53 AM 48.0 °F 46.9 °F 96% 30.09 in - Calm Calm - N/A   Unknown
5:53 AM 46.0 °F 45.0 °F 96% 30.11 in - Calm Calm - N/A   Unknown
6:53 AM 44.1 °F 43.0 °F 96% 30.12 in - Calm Calm - N/A   Unknown
7:53 AM 43.0 °F 42.1 °F 97% 30.15 in - Calm Calm - N/A   Unknown
8:53 AM 48.9 °F 46.9 °F 93% 30.17 in - North 4.6 mph - N/A   Unknown
9:53 AM 54.0 °F 46.0 °F 75% 30.20 in - NNE 10.4 mph - N/A   Unknown
10:53 AM 57.9 °F 45.0 °F 62% 30.21 in - North 9.2 mph - N/A   Unknown
11:53 AM 62.1 °F 44.1 °F 52% 30.18 in - NNE 8.1 mph - N/A   Unknown
12:53 PM 64.0 °F 43.0 °F 46% 30.15 in - ENE 6.9 mph - N/A   Unknown
1:53 PM 66.0 °F 44.1 °F 45% 30.14 in - ENE 4.6 mph - N/A   Unknown
2:53 PM 66.9 °F 45.0 °F 45% 30.12 in - NNE 3.5 mph - N/A   Unknown
3:53 PM 68.0 °F 45.0 °F 43% 30.13 in - North 3.5 mph - N/A   Unknown
4:53 PM 66.0 °F 45.0 °F 47% 30.13 in - NNE 3.5 mph - N/A   Unknown
5:53 PM 57.0 °F 48.0 °F 72% 30.15 in - Calm Calm - N/A   Unknown
6:53 PM 53.1 °F 48.9 °F 86% 30.17 in - Calm Calm - N/A   Unknown
7:53 PM 54.0 °F 50.0 °F 86% 30.19 in - Calm Calm - N/A   Unknown
8:53 PM 55.0 °F 48.9 °F 80% 30.21 in - North 3.5 mph - N/A   Unknown
9:53 PM 54.0 °F 50.0 °F 86% 30.22 in - Calm Calm - N/A   Unknown
10:53 PM 55.0 °F 50.0 °F 83% 30.23 in - Calm Calm - N/A   Unknown
11:53 PM 54.0 °F 51.1 °F 90% 30.20 in - Calm Calm - N/A   Unknown